| time (UTC) | temp C | wind direction | speed KPH | gust KPH | rain 1hr cm | rain 24hr cm | rain mn cm | humidity % | barometer mb |
| 20260507145948 | 8 | 254 | 6.4 | 14.5 | 0.00 | 0.00 | 0.00 | 78 | 1023.7 |
| 20260507145719 | 8 | 235 | 6.4 | 14.5 | 0.00 | 0.00 | 0.00 | 80 | 1023.8 |
| 20260507145219 | 8 | 244 | 6.4 | 12.9 | 0.00 | 0.00 | 0.00 | 81 | 1023.8 |
| 20260507144450 | 8 | 249 | 6.4 | 12.9 | 0.00 | 0.00 | 0.00 | 83 | 1023.8 |
| 20260507143946 | 8 | 281 | 6.4 | 12.9 | 0.00 | 0.00 | 0.00 | 84 | 1023.9 |
| 20260507143446 | 7 | 276 | 8.0 | 12.9 | 0.00 | 0.00 | 0.00 | 85 | 1023.9 |
| 20260507143218 | 7 | 302 | 8.0 | 14.5 | 0.00 | 0.00 | 0.00 | 86 | 1024.0 |
| 20260507142446 | 7 | 322 | 8.0 | 16.1 | 0.00 | 0.00 | 0.00 | 87 | 1024.1 |
| 20260507141946 | 6 | 331 | 8.0 | 16.1 | 0.00 | 0.00 | 0.00 | 87 | 1024.2 |
| 20260507141447 | 6 | 272 | 8.0 | 14.5 | 0.00 | 0.00 | 0.00 | 88 | 1024.3 |
| 20260507140947 | 6 | 327 | 8.0 | 14.5 | 0.00 | 0.00 | 0.00 | 88 | 1024.2 |
| 20260507140447 | 6 | 334 | 6.4 | 14.5 | 0.00 | 0.00 | 0.00 | 89 | 1024.3 |
| 20260507135943 | 6 | 307 | 6.4 | 12.9 | 0.00 | 0.00 | 0.00 | 90 | 1024.3 |
| 20260507135712 | 6 | 301 | 6.4 | 12.9 | 0.00 | 0.00 | 0.00 | 89 | 1024.3 |
| 20260507134938 | 6 | 281 | 6.4 | 12.9 | 0.00 | 0.00 | 0.00 | 90 | 1024.3 |
| 20260507134438 | 5 | 285 | 8.0 | 12.9 | 0.00 | 0.00 | 0.00 | 90 | 1024.4 |
| 20260507133939 | 5 | 265 | 6.4 | 12.9 | 0.00 | 0.00 | 0.00 | 90 | 1024.4 |
| 20260507133708 | 5 | 307 | 9.7 | 14.5 | 0.00 | 0.00 | 0.00 | 90 | 1024.4 |
| 20260507132936 | 5 | 342 | 11.3 | 14.5 | 0.00 | 0.00 | 0.00 | 90 | 1024.4 |
| 20260507132437 | 5 | 335 | 9.7 | 14.5 | 0.00 | 0.00 | 0.00 | 89 | 1024.4 |
| 20260507132208 | 5 | 319 | 8.0 | 16.1 | 0.00 | 0.00 | 0.00 | 89 | 1024.4 |
| 20260507131437 | 5 | 293 | 8.0 | 16.1 | 0.00 | 0.00 | 0.00 | 89 | 1024.4 |
| 20260507130936 | 5 | 279 | 8.0 | 11.3 | 0.00 | 0.00 | 0.00 | 89 | 1024.4 |
| 20260507130432 | 5 | 324 | 6.4 | 12.9 | 0.00 | 0.00 | 0.00 | 89 | 1024.4 |
| 20260507125932 | 5 | 328 | 6.4 | 12.9 | 0.00 | 0.00 | 0.00 | 89 | 1024.3 |
| 20260507125433 | 4 | 337 | 6.4 | 11.3 | 0.00 | 0.00 | 0.00 | 89 | 1024.3 |
| 20260507124932 | 4 | 342 | 4.8 | 11.3 | 0.00 | 0.00 | 0.00 | 89 | 1024.2 |
| 20260507124432 | 4 | 340 | 3.2 | 11.3 | 0.00 | 0.00 | 0.00 | 88 | 1024.2 |
| 20260507123933 | 3 | 300 | 1.6 | 8.0 | 0.00 | 0.00 | 0.00 | 89 | 1024.2 |
| 20260507123422 | 3 | 316 | 1.6 | 8.0 | 0.00 | 0.00 | 0.00 | 88 | 1024.1 |
| 20260507122922 | 3 | 290 | 1.6 | 6.4 | 0.00 | 0.00 | 0.00 | 88 | 1024.1 |
| 20260507122422 | 3 | 287 | 1.6 | 6.4 | 0.00 | 0.00 | 0.00 | 88 | 1023.9 |
| 20260507121922 | 3 | 281 | 0.0 | 6.4 | 0.00 | 0.00 | 0.00 | 88 | 1023.9 |
| 20260507121423 | 3 | 306 | 0.0 | 0.0 | 0.00 | 0.00 | 0.00 | 88 | 1023.9 |
| 20260507120920 | 3 | 300 | 0.0 | 1.6 | 0.00 | 0.00 | 0.00 | 88 | 1023.9 |
| 20260507120420 | 3 | 302 | 0.0 | 4.8 | 0.00 | 0.00 | 0.00 | 88 | 1023.8 |
| 20260507115917 | 3 | 299 | 0.0 | 4.8 | 0.00 | 0.00 | 0.00 | 88 | 1023.8 |
| 20260507115414 | 3 | 305 | 0.0 | 4.8 | 0.00 | 0.00 | 0.00 | 88 | 1023.8 |
| 20260507114913 | 3 | 304 | 0.0 | 3.2 | 0.00 | 0.00 | 0.00 | 88 | 1023.8 |
| 20260507114400 | 3 | 300 | 1.6 | 4.8 | 0.00 | 0.00 | 0.00 | 88 | 1023.7 |
| 20260507113856 | 3 | 312 | 1.6 | 4.8 | 0.00 | 0.00 | 0.00 | 87 | 1023.7 |
| 20260507113355 | 3 | 317 | 1.6 | 4.8 | 0.00 | 0.00 | 0.00 | 87 | 1023.7 |
| 20260507112852 | 3 | 310 | 1.6 | 3.2 | 0.00 | 0.00 | 0.00 | 87 | 1023.6 |
| 20260507112352 | 3 | 316 | 1.6 | 4.8 | 0.00 | 0.00 | 0.00 | 87 | 1023.8 |
| 20260507111851 | 3 | 301 | 1.6 | 4.8 | 0.00 | 0.00 | 0.00 | 87 | 1023.8 |
| 20260507111340 | 3 | 308 | 1.6 | 4.8 | 0.00 | 0.00 | 0.00 | 87 | 1023.8 |
| 20260507110841 | 3 | 330 | 1.6 | 4.8 | 0.00 | 0.00 | 0.00 | 87 | 1023.8 |
| 20260507110340 | 3 | 330 | 1.6 | 6.4 | 0.00 | 0.00 | 0.00 | 87 | 1023.8 |
| 20260507105841 | 3 | 333 | 3.2 | 6.4 | 0.00 | 0.00 | 0.00 | 87 | 1023.8 |
| 20260507105340 | 3 | 309 | 3.2 | 6.4 | 0.00 | 0.00 | 0.00 | 86 | 1023.7 |
| 20260507105116 | 3 | 326 | 3.2 | 6.4 | 0.00 | 0.00 | 0.00 | 86 | 1023.7 |
| 20260507104841 | 3 | 309 | 3.2 | 4.8 | 0.00 | 0.00 | 0.00 | 86 | 1023.7 |
| 20260507103838 | 3 | 326 | 3.2 | 8.0 | 0.00 | 0.00 | 0.00 | 85 | 1023.7 |
| 20260507103336 | 3 | 333 | 4.8 | 9.7 | 0.00 | 0.00 | 0.00 | 85 | 1023.7 |
| 20260507102836 | 4 | 326 | 1.6 | 9.7 | 0.00 | 0.00 | 0.00 | 85 | 1023.7 |
| 20260507102337 | 4 | 291 | 0.0 | 3.2 | 0.00 | 0.00 | 0.00 | 86 | 1023.6 |
| 20260507101810 | 4 | 311 | 0.0 | 1.6 | 0.00 | 0.00 | 0.00 | 86 | 1023.5 |
| 20260507101312 | 4 | 313 | 0.0 | 0.0 | 0.00 | 0.00 | 0.00 | 85 | 1023.6 |
| 20260507101024 | 4 | 318 | 0.0 | 0.0 | 0.00 | 0.00 | 0.00 | 85 | 1023.5 |
| 20260507100517 | 4 | 318 | 0.0 | 0.0 | 0.00 | 0.00 | 0.00 | 85 | 1023.5 |
| 20260507095735 | 4 | 318 | 0.0 | 1.6 | 0.00 | 0.00 | 0.00 | 85 | 1023.5 |
| 20260507095228 | 4 | 318 | 1.6 | 4.8 | 0.00 | 0.00 | 0.00 | 85 | 1023.6 |
| 20260507094950 | 4 | 323 | 3.2 | 6.4 | 0.00 | 0.00 | 0.00 | 85 | 1023.6 |
| 20260507094201 | 4 | 333 | 3.2 | 6.4 | 0.00 | 0.00 | 0.00 | 84 | 1023.5 |
| 20260507093927 | 4 | 337 | 4.8 | 6.4 | 0.00 | 0.00 | 0.00 | 84 | 1023.6 |
| 20260507093651 | 4 | 335 | 4.8 | 6.4 | 0.00 | 0.00 | 0.00 | 84 | 1023.7 |
| 20260507092648 | 4 | 359 | 4.8 | 8.0 | 0.00 | 0.00 | 0.00 | 83 | 1023.6 |
| 20260507092142 | 4 | 355 | 6.4 | 9.7 | 0.00 | 0.00 | 0.00 | 83 | 1023.5 |
| 20260507091642 | 5 | 352 | 6.4 | 9.7 | 0.00 | 0.00 | 0.00 | 82 | 1023.6 |
| 20260507091139 | 5 | 352 | 6.4 | 9.7 | 0.00 | 0.00 | 0.00 | 82 | 1023.6 |
| 20260507090635 | 5 | 359 | 4.8 | 9.7 | 0.00 | 0.00 | 0.00 | 81 | 1023.5 |
| 20260507090136 | 5 | 344 | 4.8 | 8.0 | 0.00 | 0.00 | 0.00 | 80 | 1023.4 |
| 20260507085634 | 5 | 359 | 3.2 | 6.4 | 0.00 | 0.00 | 0.00 | 79 | 1023.4 |
| 20260507085133 | 5 | 1 | 1.6 | 4.8 | 0.00 | 0.00 | 0.00 | 79 | 1023.3 |
| 20260507084626 | 5 | 11 | 1.6 | 4.8 | 0.00 | 0.00 | 0.00 | 78 | 1023.3 |
| 20260507084124 | 6 | 20 | 1.6 | 4.8 | 0.00 | 0.00 | 0.00 | 77 | 1023.2 |
| 20260507083614 | 6 | 20 | 3.2 | 4.8 | 0.00 | 0.00 | 0.00 | 77 | 1023.2 |
| 20260507083113 | 6 | 22 | 3.2 | 6.4 | 0.00 | 0.00 | 0.00 | 76 | 1023.0 |
| 20260507082614 | 6 | 15 | 3.2 | 6.4 | 0.00 | 0.00 | 0.00 | 75 | 1023.1 |
| 20260507082113 | 6 | 34 | 3.2 | 6.4 | 0.00 | 0.00 | 0.00 | 75 | 1022.9 |
| 20260507081612 | 6 | 63 | 3.2 | 6.4 | 0.00 | 0.00 | 0.00 | 75 | 1023.0 |
| 20260507081342 | 6 | 49 | 3.2 | 6.4 | 0.00 | 0.00 | 0.00 | 76 | 1023.0 |
| 20260507080834 | 6 | 58 | 4.8 | 11.3 | 0.00 | 0.00 | 0.00 | 75 | 1023.1 |
| 20260507075559 | 6 | 84 | 6.4 | 12.9 | 0.00 | 0.00 | 0.00 | 76 | 1022.9 |
| 20260507075054 | 6 | 77 | 9.7 | 16.1 | 0.00 | 0.00 | 0.00 | 76 | 1022.8 |
| 20260507074822 | 6 | 57 | 11.3 | 17.7 | 0.00 | 0.00 | 0.00 | 77 | 1022.6 |
| 20260507074324 | 6 | 67 | 9.7 | 17.7 | 0.00 | 0.00 | 0.00 | 77 | 1022.9 |
| 20260507073549 | 6 | 101 | 8.0 | 14.5 | 0.00 | 0.00 | 0.00 | 77 | 1022.9 |
| 20260507073049 | 6 | 108 | 6.4 | 11.3 | 0.00 | 0.00 | 0.00 | 78 | 1023.3 |
| 20260507072550 | 6 | 29 | 6.4 | 11.3 | 0.00 | 0.00 | 0.00 | 78 | 1024.2 |
| 20260507072047 | 6 | 20 | 8.0 | 11.3 | 0.00 | 0.00 | 0.00 | 77 | 1024.1 |
| 20260507071547 | 6 | 1 | 6.4 | 11.3 | 0.00 | 0.00 | 0.00 | 77 | 1024.3 |
| 20260507071049 | 6 | 359 | 4.8 | 9.7 | 0.00 | 0.00 | 0.00 | 76 | 1024.2 |
| 20260507070544 | 6 | 25 | 3.2 | 6.4 | 0.00 | 0.00 | 0.00 | 77 | 1024.2 |
| 20260507070043 | 6 | 36 | 1.6 | 6.4 | 0.00 | 0.00 | 0.00 | 77 | 1024.2 |
| 20260507065807 | 6 | 22 | 1.6 | 6.4 | 0.00 | 0.00 | 0.00 | 77 | 1024.4 |
| 20260507065036 | 6 | 51 | 3.2 | 6.4 | 0.00 | 0.00 | 0.00 | 77 | 1024.4 |
| 20260507064533 | 6 | 20 | 4.8 | 9.7 | 0.00 | 0.00 | 0.00 | 76 | 1024.4 |
| 20260507064036 | 6 | 2 | 6.4 | 11.3 | 0.00 | 0.00 | 0.00 | 76 | 1024.2 |
| 20260507063533 | 7 | 357 | 6.4 | 11.3 | 0.00 | 0.00 | 0.00 | 75 | 1024.2 |
| 20260507063030 | 7 | 0 | 6.4 | 12.9 | 0.00 | 0.00 | 0.00 | 75 | 1024.5 |
| 20260507062530 | 7 | 19 | 9.7 | 14.5 | 0.00 | 0.00 | 0.00 | 75 | 1024.5 |
| 20260507062030 | 7 | 1 | 9.7 | 16.1 | 0.00 | 0.00 | 0.00 | 75 | 1024.7 |
| 20260507061530 | 7 | 349 | 9.7 | 16.1 | 0.00 | 0.00 | 0.00 | 75 | 1024.6 |
| 20260507061030 | 7 | 17 | 8.0 | 12.9 | 0.00 | 0.00 | 0.00 | 74 | 1024.5 |
| 20260507060529 | 7 | 1 | 8.0 | 12.9 | 0.00 | 0.00 | 0.00 | 73 | 1024.5 |
| 20260507060300 | 7 | 8 | 11.3 | 17.7 | 0.00 | 0.00 | 0.00 | 73 | 1024.2 |
| 20260507055528 | 7 | 8 | 11.3 | 17.7 | 0.00 | 0.00 | 0.00 | 73 | 1023.9 |
| 20260507055025 | 7 | 6 | 12.9 | 17.7 | 0.00 | 0.00 | 0.00 | 71 | 1023.8 |
| 20260507054525 | 7 | 15 | 11.3 | 17.7 | 0.00 | 0.00 | 0.00 | 70 | 1023.6 |
| 20260507054023 | 7 | 16 | 11.3 | 17.7 | 0.00 | 0.00 | 0.00 | 70 | 1023.3 |
| 20260507053521 | 7 | 32 | 11.3 | 17.7 | 0.00 | 0.00 | 0.00 | 70 | 1023.2 |
| 20260507053022 | 7 | 20 | 11.3 | 17.7 | 0.00 | 0.00 | 0.00 | 70 | 1023.6 |
| 20260507052753 | 7 | 11 | 11.3 | 19.3 | 0.00 | 0.00 | 0.00 | 69 | 1023.6 |
| 20260507052021 | 7 | 29 | 14.5 | 22.5 | 0.00 | 0.00 | 0.00 | 69 | 1023.5 |
| 20260507051519 | 7 | 32 | 16.1 | 29.0 | 0.00 | 0.00 | 0.00 | 69 | 1023.5 |
| 20260507051020 | 7 | 28 | 16.1 | 29.0 | 0.00 | 0.00 | 0.00 | 68 | 1023.5 |
| 20260507050517 | 7 | 5 | 16.1 | 22.5 | 0.00 | 0.00 | 0.00 | 67 | 1023.6 |
| 20260507050015 | 7 | 20 | 16.1 | 24.1 | 0.00 | 0.00 | 0.00 | 67 | 1023.6 |
| 20260507045515 | 7 | 0 | 16.1 | 27.4 | 0.00 | 0.00 | 0.00 | 67 | 1023.4 |
| 20260507045247 | 7 | 5 | 16.1 | 27.4 | 0.00 | 0.00 | 0.00 | 67 | 1023.2 |
| 20260507044515 | 7 | 16 | 16.1 | 25.7 | 0.00 | 0.00 | 0.00 | 67 | 1023.2 |
| 20260507044015 | 7 | 22 | 19.3 | 29.0 | 0.00 | 0.00 | 0.00 | 67 | 1023.1 |
| 20260507043510 | 7 | 20 | 19.3 | 29.0 | 0.00 | 0.00 | 0.00 | 67 | 1023.0 |
| 20260507043010 | 7 | 30 | 19.3 | 29.0 | 0.00 | 0.00 | 0.00 | 67 | 1022.8 |
| 20260507042740 | 7 | 1 | 16.1 | 24.1 | 0.00 | 0.00 | 0.00 | 68 | 1022.7 |
| 20260507042013 | 8 | 359 | 16.1 | 25.7 | 0.00 | 0.00 | 0.00 | 68 | 1022.9 |
| 20260507042009 | 7 | 27 | 14.5 | 22.5 | 0.00 | 0.00 | 0.00 | 68 | 1022.9 |
| 20260507041006 | 8 | 12 | 19.3 | 29.0 | 0.00 | 0.00 | 0.00 | 67 | 1022.7 |
| 20260507040736 | 8 | 1 | 19.3 | 29.0 | 0.00 | 0.00 | 0.00 | 67 | 1022.4 |
| 20260507040233 | 8 | 22 | 17.7 | 25.7 | 0.00 | 0.00 | 0.00 | 67 | 1022.4 |
| 20260507035458 | 8 | 8 | 17.7 | 24.1 | 0.00 | 0.00 | 0.00 | 68 | 1022.1 |
| 20260507035229 | 8 | 14 | 19.3 | 27.4 | 0.00 | 0.00 | 0.00 | 68 | 1021.9 |
| 20260507034458 | 8 | 22 | 20.9 | 32.2 | 0.00 | 0.00 | 0.00 | 68 | 1021.9 |
| 20260507033957 | 8 | 24 | 19.3 | 32.2 | 0.00 | 0.00 | 0.00 | 68 | 1021.8 |
| 20260507033732 | 8 | 5 | 16.1 | 29.0 | 0.00 | 0.00 | 0.00 | 69 | 1021.8 |
| 20260507033457 | 8 | 37 | 17.7 | 29.0 | 0.00 | 0.00 | 0.00 | 68 | 1021.9 |
| 20260507032457 | 8 | 1 | 17.7 | 29.0 | 0.00 | 0.00 | 0.00 | 69 | 1022.0 |
| 20260507031956 | 8 | 13 | 17.7 | 29.0 | 0.00 | 0.00 | 0.00 | 69 | 1021.6 |
| 20260507031454 | 9 | 5 | 19.3 | 33.8 | 0.00 | 0.00 | 0.00 | 68 | 1021.6 |
| 20260507030954 | 9 | 19 | 19.3 | 37.0 | 0.00 | 0.00 | 0.00 | 67 | 1021.5 |
| 20260507030454 | 10 | 355 | 17.7 | 37.0 | 0.00 | 0.00 | 0.00 | 66 | 1021.5 |
| 20260507025955 | 10 | 24 | 14.5 | 24.1 | 0.00 | 0.00 | 0.00 | 68 | 1021.4 |
| 20260507025451 | 10 | 23 | 14.5 | 24.1 | 0.00 | 0.00 | 0.00 | 69 | 1021.4 |
| 20260507025221 | 10 | 20 | 16.1 | 24.1 | 0.00 | 0.00 | 0.00 | 67 | 1021.4 |
| 20260507024720 | 10 | 6 | 20.9 | 32.2 | 0.00 | 0.00 | 0.00 | 66 | 1021.2 |
| 20260507023951 | 11 | 29 | 27.4 | 35.4 | 0.00 | 0.00 | 0.00 | 62 | 1020.8 |
| 20260507023450 | 11 | 24 | 27.4 | 40.2 | 0.00 | 0.00 | 0.00 | 57 | 1020.3 |
| 20260507022950 | 12 | 23 | 22.5 | 40.2 | 0.00 | 0.00 | 0.00 | 53 | 1020.2 |
| 20260507022445 | 13 | 15 | 19.3 | 32.2 | 0.00 | 0.00 | 0.00 | 50 | 1020.5 |
| 20260507022217 | 13 | 0 | 17.7 | 27.4 | 0.00 | 0.00 | 0.00 | 49 | 1020.2 |
| 20260507021447 | 13 | 20 | 17.7 | 24.1 | 0.00 | 0.00 | 0.00 | 49 | 1020.0 |
| 20260507020944 | 13 | 11 | 17.7 | 29.0 | 0.00 | 0.00 | 0.00 | 49 | 1019.8 |
| 20260507020444 | 13 | 1 | 17.7 | 29.0 | 0.00 | 0.00 | 0.00 | 48 | 1019.6 |
| 20260507015942 | 13 | 8 | 16.1 | 27.4 | 0.00 | 0.00 | 0.00 | 48 | 1019.1 |
| 20260507015442 | 13 | 53 | 17.7 | 27.4 | 0.00 | 0.00 | 0.00 | 48 | 1018.9 |
| 20260507014943 | 13 | 25 | 16.1 | 25.7 | 0.00 | 0.00 | 0.00 | 48 | 1018.6 |
| 20260507014441 | 13 | 36 | 16.1 | 25.7 | 0.00 | 0.00 | 0.00 | 48 | 1018.5 |
| 20260507013939 | 13 | 63 | 17.7 | 25.7 | 0.00 | 0.00 | 0.00 | 48 | 1018.3 |
| 20260507013441 | 13 | 49 | 19.3 | 32.2 | 0.00 | 0.00 | 0.00 | 48 | 1018.1 |
| 20260507012940 | 14 | 44 | 20.9 | 32.2 | 0.00 | 0.00 | 0.00 | 48 | 1017.8 |
| 20260507012440 | 14 | 35 | 20.9 | 33.8 | 0.00 | 0.00 | 0.00 | 47 | 1017.5 |
| 20260507011938 | 14 | 40 | 19.3 | 33.8 | 0.00 | 0.00 | 0.00 | 46 | 1017.3 |
| 20260507011709 | 14 | 75 | 17.7 | 33.8 | 0.00 | 0.00 | 0.00 | 47 | 1017.1 |
| 20260507010936 | 15 | 53 | 17.7 | 29.0 | 0.00 | 0.00 | 0.00 | 46 | 1016.7 |
| 20260507010435 | 15 | 36 | 19.3 | 30.6 | 0.00 | 0.00 | 0.00 | 46 | 1016.3 |
| 20260507005936 | 15 | 46 | 19.3 | 30.6 | 0.00 | 0.00 | 0.00 | 46 | 1016.3 |
| 20260507005433 | 15 | 108 | 17.7 | 29.0 | 0.00 | 0.00 | 0.00 | 46 | 1016.0 |
| 20260507004933 | 15 | 70 | 19.3 | 33.8 | 0.00 | 0.00 | 0.00 | 45 | 1016.1 |
| 20260507004434 | 15 | 46 | 19.3 | 33.8 | 0.00 | 0.00 | 0.00 | 45 | 1016.1 |
| 20260507003933 | 15 | 101 | 17.7 | 29.0 | 0.00 | 0.00 | 0.00 | 44 | 1015.9 |
| 20260507003439 | 15 | 57 | 17.7 | 33.8 | 0.00 | 0.00 | 0.00 | 44 | 1015.8 |
| 20260507003434 | 15 | 96 | 17.7 | 33.8 | 0.00 | 0.00 | 0.00 | 44 | 1015.8 |
| 20260507002432 | 15 | 80 | 19.3 | 32.2 | 0.00 | 0.00 | 0.00 | 44 | 1015.8 |
| 20260507001931 | 16 | 41 | 20.9 | 33.8 | 0.00 | 0.00 | 0.00 | 44 | 1015.7 |
| 20260507001429 | 16 | 57 | 22.5 | 37.0 | 0.00 | 0.00 | 0.00 | 43 | 1015.7 |
| 20260507000930 | 16 | 22 | 24.1 | 37.0 | 0.00 | 0.00 | 0.00 | 42 | 1015.5 |
| 20260507000429 | 16 | 102 | 24.1 | 37.0 | 0.00 | 0.00 | 0.00 | 42 | 1015.5 |
| 20260506235928 | 17 | 97 | 24.1 | 37.0 | 0.00 | 0.00 | 0.00 | 41 | 1015.0 |
| 20260506235427 | 17 | 75 | 22.5 | 35.4 | 0.00 | 0.00 | 0.00 | 41 | 1015.1 |
| 20260506234925 | 17 | 128 | 22.5 | 35.4 | 0.00 | 0.00 | 0.00 | 41 | 1015.0 |
| 20260506234426 | 16 | 40 | 22.5 | 35.4 | 0.00 | 0.00 | 0.00 | 41 | 1014.8 |
| 20260506233925 | 17 | 91 | 25.7 | 43.5 | 0.00 | 0.00 | 0.00 | 41 | 1014.9 |
| 20260506233425 | 17 | 91 | 30.6 | 43.5 | 0.00 | 0.00 | 0.00 | 39 | 1014.7 |
| 20260506232924 | 18 | 72 | 29.0 | 41.8 | 0.00 | 0.00 | 0.00 | 38 | 1015.0 |
| 20260506232423 | 17 | 84 | 27.4 | 38.6 | 0.00 | 0.00 | 0.00 | 39 | 1015.0 |
| 20260506231924 | 17 | 97 | 27.4 | 41.8 | 0.00 | 0.00 | 0.00 | 40 | 1015.0 |
| 20260506231424 | 17 | 94 | 24.1 | 41.8 | 0.00 | 0.00 | 0.00 | 39 | 1014.9 |
| 20260506230927 | 17 | 74 | 24.1 | 41.8 | 0.00 | 0.00 | 0.00 | 39 | 1015.0 |
| 20260506230923 | 17 | 93 | 25.7 | 41.8 | 0.00 | 0.00 | 0.00 | 40 | 1014.8 |
| 20260506230152 | 17 | 76 | 20.9 | 40.2 | 0.00 | 0.00 | 0.00 | 38 | 1014.9 |
| 20260506225421 | 17 | 79 | 22.5 | 38.6 | 0.00 | 0.00 | 0.00 | 38 | 1014.8 |
| 20260506224919 | 18 | 68 | 22.5 | 38.6 | 0.00 | 0.00 | 0.00 | 38 | 1014.6 |
| 20260506224420 | 18 | 44 | 22.5 | 37.0 | 0.00 | 0.00 | 0.00 | 38 | 1014.6 |
| 20260506223918 | 18 | 131 | 22.5 | 37.0 | 0.00 | 0.00 | 0.00 | 38 | 1014.7 |
| 20260506223415 | 18 | 76 | 20.9 | 32.2 | 0.00 | 0.00 | 0.00 | 38 | 1014.6 |
| 20260506222915 | 17 | 86 | 17.7 | 29.0 | 0.00 | 0.00 | 0.00 | 38 | 1014.6 |
| 20260506222415 | 17 | 52 | 20.9 | 33.8 | 0.00 | 0.00 | 0.00 | 38 | 1014.7 |
| 20260506221915 | 17 | 43 | 22.5 | 35.4 | 0.00 | 0.00 | 0.00 | 38 | 1014.7 |
| 20260506221646 | 18 | 95 | 19.3 | 35.4 | 0.00 | 0.00 | 0.00 | 37 | 1014.8 |
| 20260506220912 | 18 | 91 | 17.7 | 32.2 | 0.00 | 0.00 | 0.00 | 36 | 1014.7 |
| 20260506220409 | 18 | 359 | 19.3 | 32.2 | 0.00 | 0.00 | 0.00 | 36 | 1014.7 |
| 20260506215909 | 19 | 82 | 22.5 | 35.4 | 0.00 | 0.00 | 0.00 | 35 | 1014.8 |
| 20260506215409 | 19 | 68 | 19.3 | 35.4 | 0.00 | 0.00 | 0.00 | 35 | 1014.6 |
| 20260506214908 | 20 | 103 | 12.9 | 33.8 | 0.00 | 0.00 | 0.00 | 33 | 1014.7 |
| 20260506214638 | 20 | 32 | 8.0 | 19.3 | 0.00 | 0.00 | 0.00 | 33 | 1014.5 |
| 20260506213908 | 20 | 100 | 4.8 | 14.5 | 0.00 | 0.00 | 0.00 | 33 | 1014.7 |
| 20260506213406 | 20 | 102 | 8.0 | 20.9 | 0.00 | 0.00 | 0.00 | 34 | 1014.7 |
| 20260506212905 | 20 | 158 | 11.3 | 22.5 | 0.00 | 0.00 | 0.00 | 34 | 1014.9 |
| 20260506212403 | 20 | 123 | 9.7 | 22.5 | 0.00 | 0.00 | 0.00 | 34 | 1015.0 |
| 20260506211903 | 19 | 50 | 8.0 | 19.3 | 0.00 | 0.00 | 0.00 | 35 | 1015.0 |
| 20260506211403 | 19 | 36 | 8.0 | 19.3 | 0.00 | 0.00 | 0.00 | 36 | 1015.0 |
| 20260506210901 | 18 | 58 | 9.7 | 20.9 | 0.00 | 0.00 | 0.00 | 36 | 1015.1 |
| 20260506210401 | 18 | 98 | 9.7 | 20.9 | 0.00 | 0.00 | 0.00 | 37 | 1015.1 |
| 20260506205903 | 18 | 24 | 11.3 | 20.9 | 0.00 | 0.00 | 0.00 | 36 | 1015.1 |
| 20260506205359 | 18 | 37 | 11.3 | 24.1 | 0.00 | 0.00 | 0.00 | 36 | 1015.1 |
| 20260506204859 | 18 | 59 | 12.9 | 24.1 | 0.00 | 0.00 | 0.00 | 36 | 1015.2 |
| 20260506204629 | 18 | 32 | 16.1 | 25.7 | 0.00 | 0.00 | 0.00 | 36 | 1015.2 |
| 20260506203858 | 18 | 113 | 12.9 | 25.7 | 0.00 | 0.00 | 0.00 | 36 | 1015.3 |
| 20260506203629 | 18 | 146 | 11.3 | 25.7 | 0.00 | 0.00 | 0.00 | 38 | 1015.4 |
| 20260506202858 | 18 | 55 | 12.9 | 24.1 | 0.00 | 0.00 | 0.00 | 37 | 1015.4 |
| 20260506202626 | 17 | 24 | 11.3 | 22.5 | 0.00 | 0.00 | 0.00 | 38 | 1015.5 |
| 20260506201853 | 17 | 60 | 8.0 | 17.7 | 0.00 | 0.00 | 0.00 | 37 | 1015.7 |
| 20260506201353 | 17 | 134 | 9.7 | 20.9 | 0.00 | 0.00 | 0.00 | 38 | 1015.6 |
| 20260506200856 | 17 | 69 | 11.3 | 20.9 | 0.00 | 0.00 | 0.00 | 37 | 1015.6 |
| 20260506200623 | 18 | 102 | 12.9 | 22.5 | 0.00 | 0.00 | 0.00 | 36 | 1015.7 |
| 20260506195853 | 18 | 71 | 12.9 | 24.1 | 0.00 | 0.00 | 0.00 | 37 | 1015.7 |
| 20260506195351 | 18 | 103 | 11.3 | 27.4 | 0.00 | 0.00 | 0.00 | 37 | 1015.7 |
| 20260506194851 | 18 | 117 | 9.7 | 27.4 | 0.00 | 0.00 | 0.00 | 37 | 1015.7 |
| 20260506194730 | 18 | 122 | 12.9 | 25.7 | 0.00 | 0.00 | 0.00 | 37 | 1015.7 |
| 20260506194621 | 18 | 56 | 11.3 | 25.7 | 0.00 | 0.00 | 0.00 | 36 | 1015.6 |
| 20260506193351 | 18 | 70 | 9.7 | 22.5 | 0.00 | 0.00 | 0.00 | 37 | 1015.6 |
| 20260506192855 | 18 | 226 | 4.8 | 12.9 | 0.00 | 0.00 | 0.00 | 37 | 1015.9 |
| 20260506192851 | 18 | 38 | 6.4 | 17.7 | 0.00 | 0.00 | 0.00 | 37 | 1015.8 |
| 20260506191851 | 17 | 236 | 6.4 | 16.1 | 0.00 | 0.00 | 0.00 | 37 | 1016.0 |
| 20260506191349 | 17 | 143 | 6.4 | 19.3 | 0.00 | 0.00 | 0.00 | 37 | 1016.1 |
| 20260506190844 | 17 | 207 | 4.8 | 19.3 | 0.00 | 0.00 | 0.00 | 37 | 1016.2 |
| 20260506190345 | 17 | 238 | 4.8 | 14.5 | 0.00 | 0.00 | 0.00 | 38 | 1016.3 |
| 20260506185843 | 17 | 129 | 6.4 | 14.5 | 0.00 | 0.00 | 0.00 | 40 | 1016.4 |
| 20260506185343 | 17 | 281 | 6.4 | 16.1 | 0.00 | 0.00 | 0.00 | 39 | 1016.5 |
| 20260506184843 | 17 | 220 | 3.2 | 16.1 | 0.00 | 0.00 | 0.00 | 39 | 1016.6 |
| 20260506184343 | 17 | 98 | 3.2 | 9.7 | 0.00 | 0.00 | 0.00 | 40 | 1016.7 |
| 20260506183843 | 17 | 55 | 4.8 | 14.5 | 0.00 | 0.00 | 0.00 | 41 | 1016.8 |
| 20260506183344 | 16 | 109 | 8.0 | 20.9 | 0.00 | 0.00 | 0.00 | 41 | 1017.0 |
| 20260506182841 | 16 | 114 | 6.4 | 20.9 | 0.00 | 0.00 | 0.00 | 41 | 1016.8 |
| 20260506182339 | 16 | 103 | 4.8 | 16.1 | 0.00 | 0.00 | 0.00 | 42 | 1017.1 |
| 20260506181839 | 16 | 150 | 4.8 | 16.1 | 0.00 | 0.00 | 0.00 | 43 | 1017.2 |
| 20260506181336 | 16 | 56 | 4.8 | 16.1 | 0.00 | 0.00 | 0.00 | 44 | 1017.2 |
| 20260506180837 | 15 | 139 | 8.0 | 17.7 | 0.00 | 0.00 | 0.00 | 45 | 1017.1 |
| 20260506180337 | 15 | 96 | 6.4 | 17.7 | 0.00 | 0.00 | 0.00 | 46 | 1017.2 |
| 20260506175834 | 15 | 98 | 6.4 | 12.9 | 0.00 | 0.00 | 0.00 | 46 | 1017.4 |
| 20260506175335 | 15 | 49 | 9.7 | 20.9 | 0.00 | 0.00 | 0.00 | 47 | 1017.5 |
| 20260506174835 | 15 | 53 | 8.0 | 20.9 | 0.00 | 0.00 | 0.00 | 47 | 1017.5 |
| 20260506174604 | 15 | 110 | 4.8 | 17.7 | 0.00 | 0.00 | 0.00 | 48 | 1017.6 |
| 20260506173832 | 15 | 41 | 3.2 | 16.1 | 0.00 | 0.00 | 0.00 | 48 | 1017.7 |
| 20260506173333 | 14 | 140 | 4.8 | 14.5 | 0.00 | 0.00 | 0.00 | 49 | 1017.7 |
| 20260506172833 | 14 | 280 | 4.8 | 14.5 | 0.00 | 0.00 | 0.00 | 49 | 1017.9 |
| 20260506172325 | 13 | 151 | 8.0 | 19.3 | 0.00 | 0.00 | 0.00 | 50 | 1017.8 |
| 20260506172054 | 13 | 60 | 8.0 | 19.3 | 0.00 | 0.00 | 0.00 | 49 | 1017.8 |
| 20260506171315 | 13 | 106 | 4.8 | 19.3 | 0.00 | 0.00 | 0.00 | 50 | 1017.9 |
| 20260506170811 | 13 | 32 | 4.8 | 16.1 | 0.00 | 0.00 | 0.00 | 51 | 1017.8 |
| 20260506170308 | 13 | 65 | 6.4 | 16.1 | 0.00 | 0.00 | 0.00 | 50 | 1017.9 |
| 20260506165809 | 13 | 85 | 3.2 | 16.1 | 0.00 | 0.00 | 0.00 | 51 | 1017.9 |
| 20260506165309 | 13 | 122 | 1.6 | 9.7 | 0.00 | 0.00 | 0.00 | 53 | 1017.9 |
| 20260506164808 | 13 | 79 | 4.8 | 14.5 | 0.00 | 0.00 | 0.00 | 53 | 1017.9 |
| 20260506164307 | 12 | 98 | 6.4 | 16.1 | 0.00 | 0.00 | 0.00 | 54 | 1017.9 |
| 20260506163807 | 12 | 141 | 6.4 | 19.3 | 0.00 | 0.00 | 0.00 | 55 | 1017.8 |
| 20260506163305 | 12 | 142 | 4.8 | 19.3 | 0.00 | 0.00 | 0.00 | 56 | 1017.8 |
| 20260506162804 | 12 | 44 | 3.2 | 11.3 | 0.00 | 0.00 | 0.00 | 59 | 1017.9 |
| 20260506162306 | 12 | 159 | 4.8 | 11.3 | 0.00 | 0.00 | 0.00 | 59 | 1017.9 |
| 20260506161802 | 11 | 178 | 3.2 | 9.7 | 0.00 | 0.00 | 0.00 | 60 | 1017.9 |
| 20260506161303 | 11 | 101 | 3.2 | 11.3 | 0.00 | 0.00 | 0.00 | 61 | 1017.9 |
| 20260506160801 | 11 | 215 | 3.2 | 12.9 | 0.00 | 0.00 | 0.00 | 62 | 1017.9 |
| 20260506160301 | 11 | 117 | 6.4 | 14.5 | 0.00 | 0.00 | 0.00 | 62 | 1017.8 |
| 20260506155801 | 11 | 113 | 4.8 | 14.5 | 0.00 | 0.00 | 0.00 | 63 | 1017.8 |
| 20260506155534 | 10 | 111 | 4.8 | 16.1 | 0.00 | 0.00 | 0.00 | 64 | 1017.7 |
| 20260506155259 | 10 | 146 | 4.8 | 16.1 | 0.00 | 0.00 | 0.00 | 64 | 1017.7 |
| 20260506154259 | 10 | 143 | 4.8 | 12.9 | 0.00 | 0.00 | 0.00 | 65 | 1017.6 |
| 20260506153756 | 10 | 116 | 6.4 | 12.9 | 0.00 | 0.00 | 0.00 | 65 | 1017.7 |
| 20260506153257 | 10 | 101 | 4.8 | 11.3 | 0.00 | 0.00 | 0.00 | 66 | 1017.6 |
| 20260506152757 | 9 | 156 | 3.2 | 11.3 | 0.00 | 0.00 | 0.00 | 69 | 1017.5 |
| 20260506152254 | 9 | 158 | 3.2 | 11.3 | 0.00 | 0.00 | 0.00 | 70 | 1017.4 |
| 20260506151755 | 8 | 129 | 4.8 | 11.3 | 0.00 | 0.00 | 0.00 | 71 | 1017.4 |
| 20260506151255 | 8 | 162 | 4.8 | 12.9 | 0.00 | 0.00 | 0.00 | 71 | 1017.4 |
| 20260506150755 | 8 | 147 | 4.8 | 12.9 | 0.00 | 0.00 | 0.00 | 72 | 1017.4 |